Time,TemperatureF,DewpointF,PressureIn,WindDirection,WindDirectionDegrees,WindSpeedMPH,WindSpeedGustMPH,Humidity,HourlyPrecipIn,Conditions,Clouds,dailyrainin,SoftwareType,DateUTC
2013-05-10 00:03:00,64.0,61.0,30.16,ESE,119,1.0,2.0,90,-99.99,,,-99.99,,2013-05-10 04:03:00,
2013-05-10 00:12:00,64.0,61.0,30.16,ESE,119,1.0,2.0,90,-99.99,,,-99.99,,2013-05-10 04:12:00,
2013-05-10 00:23:00,62.0,59.0,30.17,SE,138,1.0,1.0,92,-99.99,,,-99.99,,2013-05-10 04:23:00,
2013-05-10 00:33:00,62.0,59.0,30.17,SE,138,1.0,1.0,92,-99.99,,,-99.99,,2013-05-10 04:33:00,
2013-05-10 00:43:00,62.0,60.0,30.17,WSW,241,2.0,2.0,93,-99.99,,,-99.99,,2013-05-10 04:43:00,
2013-05-10 00:53:00,62.0,60.0,30.17,WSW,241,2.0,2.0,93,-99.99,,,-99.99,,2013-05-10 04:53:00,
2013-05-10 01:02:00,63.0,61.0,30.18,SE,139,3.0,7.0,93,-99.99,,,-99.99,,2013-05-10 05:02:00,
2013-05-10 01:12:00,63.0,61.0,30.18,SE,139,3.0,7.0,93,-99.99,,,-99.99,,2013-05-10 05:12:00,
2013-05-10 01:22:00,63.0,61.0,30.18,SE,146,3.0,7.0,92,-99.99,,,-99.99,,2013-05-10 05:22:00,
2013-05-10 01:32:00,63.0,61.0,30.18,SE,146,3.0,7.0,92,-99.99,,,-99.99,,2013-05-10 05:32:00,
2013-05-10 01:42:00,62.0,60.0,30.18,SSW,213,2.0,5.0,92,-99.99,,,-99.99,,2013-05-10 05:42:00,
2013-05-10 01:52:00,62.0,60.0,30.18,SSW,213,2.0,5.0,92,-99.99,,,-99.99,,2013-05-10 05:52:00,
2013-05-10 02:02:00,62.0,60.0,30.17,SE,129,1.0,3.0,93,-99.99,,,-99.99,,2013-05-10 06:02:00,
2013-05-10 02:12:00,62.0,60.0,30.17,SE,129,1.0,3.0,93,-99.99,,,-99.99,,2013-05-10 06:12:00,
2013-05-10 02:22:00,61.0,59.0,30.16,West,264,2.0,3.0,94,-99.99,,,-99.99,,2013-05-10 06:22:00,
2013-05-10 02:32:00,61.0,59.0,30.16,West,264,2.0,3.0,94,-99.99,,,-99.99,,2013-05-10 06:32:00,
2013-05-10 02:42:00,60.0,59.0,30.15,WNW,285,2.0,3.0,94,-99.99,,,-99.99,,2013-05-10 06:42:00,
2013-05-10 02:52:00,60.0,59.0,30.15,WNW,285,2.0,3.0,94,-99.99,,,-99.99,,2013-05-10 06:52:00,
2013-05-10 03:02:00,60.0,59.0,30.14,East,85,2.0,4.0,95,-99.99,,,-99.99,,2013-05-10 07:02:00,
2013-05-10 03:12:00,60.0,59.0,30.14,East,85,2.0,4.0,95,-99.99,,,-99.99,,2013-05-10 07:12:00,
2013-05-10 03:22:00,59.0,58.0,30.13,WNW,299,1.0,2.0,96,-99.99,,,-99.99,,2013-05-10 07:22:00,
2013-05-10 03:32:00,59.0,58.0,30.13,WNW,299,1.0,2.0,96,-99.99,,,-99.99,,2013-05-10 07:32:00,
2013-05-10 03:42:00,58.0,57.0,30.12,West,266,2.0,2.0,96,-99.99,,,-99.99,,2013-05-10 07:42:00,
2013-05-10 03:52:00,58.0,57.0,30.12,West,266,2.0,2.0,96,-99.99,,,-99.99,,2013-05-10 07:52:00,
2013-05-10 04:02:00,59.0,58.0,30.12,SW,235,2.0,3.0,96,-99.99,,,-99.99,,2013-05-10 08:02:00,
2013-05-10 04:12:00,59.0,58.0,30.12,SW,235,2.0,3.0,96,-99.99,,,-99.99,,2013-05-10 08:12:00,
2013-05-10 04:22:00,58.0,57.0,30.12,South,174,1.0,4.0,96,-99.99,,,-99.99,,2013-05-10 08:22:00,
2013-05-10 04:32:00,58.0,57.0,30.12,South,174,1.0,4.0,96,-99.99,,,-99.99,,2013-05-10 08:32:00,
2013-05-10 04:42:00,58.0,57.0,30.12,ESE,117,1.0,3.0,96,-99.99,,,-99.99,,2013-05-10 08:42:00,
2013-05-10 04:52:00,58.0,57.0,30.12,ESE,117,1.0,3.0,96,-99.99,,,-99.99,,2013-05-10 08:52:00,
2013-05-10 05:02:00,58.0,57.0,30.11,NE,55,1.0,2.0,97,-99.99,,,-99.99,,2013-05-10 09:02:00,
2013-05-10 05:11:00,58.0,57.0,30.11,NE,55,1.0,2.0,97,-99.99,,,-99.99,,2013-05-10 09:11:00,
2013-05-10 05:21:00,58.0,57.0,30.10,South,172,1.0,3.0,97,-99.99,,,-99.99,,2013-05-10 09:21:00,
2013-05-10 05:33:00,58.0,57.0,30.10,South,172,1.0,3.0,97,-99.99,,,-99.99,,2013-05-10 09:33:00,
2013-05-10 05:43:00,57.0,56.0,30.10,West,280,1.0,1.0,97,-99.99,,,-99.99,,2013-05-10 09:43:00,
2013-05-10 05:53:00,57.0,56.0,30.10,West,280,1.0,1.0,97,-99.99,,,-99.99,,2013-05-10 09:53:00,
2013-05-10 06:03:00,57.0,56.0,30.10,SW,222,1.0,2.0,97,-99.99,,,-99.99,,2013-05-10 10:03:00,
2013-05-10 06:12:00,57.0,56.0,30.10,SW,222,1.0,2.0,97,-99.99,,,-99.99,,2013-05-10 10:12:00,
2013-05-10 06:23:00,57.0,56.0,30.10,East,97,1.0,2.0,97,-99.99,,,-99.99,,2013-05-10 10:23:00,
2013-05-10 06:32:00,57.0,56.0,30.10,East,97,1.0,2.0,97,-99.99,,,-99.99,,2013-05-10 10:32:00,
2013-05-10 06:42:00,56.0,56.0,30.10,SSE,165,1.0,1.0,97,-99.99,,,-99.99,,2013-05-10 10:42:00,
2013-05-10 06:53:00,56.0,56.0,30.10,SSE,165,1.0,1.0,97,-99.99,,,-99.99,,2013-05-10 10:53:00,
2013-05-10 07:02:00,57.0,56.0,30.10,South,188,1.0,1.0,97,-99.99,,,-99.99,,2013-05-10 11:02:00,
2013-05-10 07:12:00,57.0,56.0,30.10,South,188,1.0,1.0,97,-99.99,,,-99.99,,2013-05-10 11:12:00,
2013-05-10 07:22:00,57.0,56.0,30.11,NE,36,1.0,2.0,97,-99.99,,,-99.99,,2013-05-10 11:22:00,
2013-05-10 07:32:00,57.0,56.0,30.11,NE,36,1.0,2.0,97,-99.99,,,-99.99,,2013-05-10 11:32:00,
2013-05-10 07:42:00,58.0,57.0,30.11,ENE,68,1.0,3.0,97,-99.99,,,-99.99,,2013-05-10 11:42:00,
2013-05-10 07:52:00,58.0,57.0,30.11,ENE,68,1.0,3.0,97,-99.99,,,-99.99,,2013-05-10 11:52:00,
2013-05-10 08:02:00,59.0,59.0,30.12,West,264,1.0,2.0,97,-99.99,,,-99.99,,2013-05-10 12:02:00,
2013-05-10 08:12:00,59.0,59.0,30.12,West,264,1.0,2.0,97,-99.99,,,-99.99,,2013-05-10 12:12:00,
2013-05-10 08:22:00,64.0,63.0,30.12,SE,135,1.0,2.0,96,-99.99,,,-99.99,,2013-05-10 12:22:00,
2013-05-10 08:32:00,64.0,63.0,30.12,SE,135,1.0,2.0,96,-99.99,,,-99.99,,2013-05-10 12:32:00,
2013-05-10 08:42:00,68.0,63.0,30.12,East,101,1.0,3.0,84,-99.99,,,-99.99,,2013-05-10 12:42:00,
2013-05-10 08:52:00,68.0,63.0,30.12,East,101,1.0,3.0,84,-99.99,,,-99.99,,2013-05-10 12:52:00,
2013-05-10 09:01:00,72.0,64.0,30.13,East,100,2.0,4.0,74,-99.99,,,-99.99,,2013-05-10 13:01:00,
2013-05-10 09:11:00,72.0,64.0,30.13,East,100,2.0,4.0,74,-99.99,,,-99.99,,2013-05-10 13:11:00,
2013-05-10 09:21:00,76.0,68.0,30.13,ESE,120,4.0,9.0,76,-99.99,,,-99.99,,2013-05-10 13:21:00,
2013-05-10 09:32:00,76.0,68.0,30.13,ESE,120,4.0,9.0,76,-99.99,,,-99.99,,2013-05-10 13:32:00,
2013-05-10 09:42:00,79.0,70.0,30.13,East,101,3.0,8.0,75,-99.99,,,-99.99,,2013-05-10 13:42:00,
2013-05-10 09:52:00,79.0,70.0,30.13,East,101,3.0,8.0,75,-99.99,,,-99.99,,2013-05-10 13:52:00,
2013-05-10 10:02:00,80.0,71.0,30.14,SE,126,4.0,8.0,75,-99.99,,,-99.99,,2013-05-10 14:02:00,
2013-05-10 10:11:00,80.0,71.0,30.14,SE,126,4.0,8.0,75,-99.99,,,-99.99,,2013-05-10 14:11:00,
2013-05-10 10:21:00,81.0,72.0,30.13,SE,144,6.0,11.0,71,-99.99,,,-99.99,,2013-05-10 14:21:00,
2013-05-10 10:32:00,81.0,72.0,30.13,SE,144,6.0,11.0,71,-99.99,,,-99.99,,2013-05-10 14:32:00,
2013-05-10 10:42:00,83.0,71.0,30.13,SSE,150,7.0,15.0,67,-99.99,,,-99.99,,2013-05-10 14:42:00,
2013-05-10 10:52:00,83.0,71.0,30.13,SSE,150,7.0,15.0,67,-99.99,,,-99.99,,2013-05-10 14:52:00,
2013-05-10 11:02:00,83.0,71.0,30.13,SSE,147,7.0,11.0,66,-99.99,,,-99.99,,2013-05-10 15:02:00,
2013-05-10 11:20:00,-999.0,-99.9,30.13,SSE,147,7.0,11.0,66,-99.99,,,-99.99,,2013-05-10 15:20:00,
2013-05-10 11:32:00,84.0,70.0,30.13,SSE,153,8.0,17.0,63,-99.99,,,-99.99,,2013-05-10 15:32:00,
2013-05-10 11:42:00,85.0,70.0,30.13,SSE,154,7.0,14.0,60,-99.99,,,-99.99,,2013-05-10 15:42:00,
2013-05-10 11:53:00,85.0,70.0,30.13,SSE,154,7.0,14.0,60,-99.99,,,-99.99,,2013-05-10 15:53:00,
2013-05-10 12:02:00,85.0,70.0,30.13,South,169,8.0,16.0,61,-99.99,,,-99.99,,2013-05-10 16:02:00,
2013-05-10 12:12:00,85.0,70.0,30.13,South,169,8.0,16.0,61,-99.99,,,-99.99,,2013-05-10 16:12:00,
2013-05-10 12:23:00,86.0,71.0,30.12,SSE,165,9.0,14.0,60,-99.99,,,-99.99,,2013-05-10 16:23:00,
2013-05-10 12:33:00,86.0,71.0,30.12,SSE,165,9.0,14.0,60,-99.99,,,-99.99,,2013-05-10 16:33:00,
2013-05-10 12:43:00,87.0,71.0,30.12,South,189,7.0,13.0,58,-99.99,,,-99.99,,2013-05-10 16:43:00,
2013-05-10 12:53:00,88.0,70.0,30.11,SSE,163,8.0,15.0,55,-99.99,,,-99.99,,2013-05-10 16:53:00,
2013-05-10 13:02:00,89.0,69.0,30.11,South,172,8.0,15.0,52,-99.99,,,-99.99,,2013-05-10 17:02:00,
2013-05-10 13:12:00,89.0,69.0,30.11,South,172,8.0,15.0,52,-99.99,,,-99.99,,2013-05-10 17:12:00,
2013-05-10 13:22:00,89.0,69.0,30.11,South,172,8.0,15.0,52,-99.99,,,-99.99,,2013-05-10 17:22:00,
2013-05-10 13:32:00,89.0,69.0,30.11,South,172,8.0,15.0,52,-99.99,,,-99.99,,2013-05-10 17:32:00,
2013-05-10 13:42:00,89.0,69.0,30.11,SSE,163,8.0,15.0,51,-99.99,,,-99.99,,2013-05-10 17:42:00,
2013-05-10 13:52:00,89.0,69.0,30.11,SSE,163,8.0,15.0,51,-99.99,,,-99.99,,2013-05-10 17:52:00,
2013-05-10 14:11:00,-999.0,-99.9,30.10,South,179,8.0,15.0,49,-99.99,,,-99.99,,2013-05-10 18:11:00,
2013-05-10 14:22:00,90.0,68.0,30.10,SSW,203,7.0,13.0,48,-99.99,,,-99.99,,2013-05-10 18:22:00,
2013-05-10 14:35:00,90.0,68.0,30.10,SSW,203,7.0,13.0,48,-99.99,,,-99.99,,2013-05-10 18:35:00,
2013-05-10 14:43:00,90.0,69.0,30.10,SSW,201,8.0,14.0,49,-99.99,,,-99.99,,2013-05-10 18:43:00,
2013-05-10 14:54:00,90.0,67.0,30.10,SSW,192,8.0,18.0,47,-99.99,,,-99.99,,2013-05-10 18:54:00,
2013-05-10 15:02:00,90.0,67.0,30.10,SSW,192,8.0,18.0,47,-99.99,,,-99.99,,2013-05-10 19:02:00,
2013-05-10 15:11:00,90.0,67.0,30.10,SSW,192,8.0,18.0,47,-99.99,,,-99.99,,2013-05-10 19:11:00,
2013-05-10 15:21:00,90.0,69.0,30.09,SSW,204,6.0,11.0,49,-99.99,,,-99.99,,2013-05-10 19:21:00,
2013-05-10 15:32:00,90.0,69.0,30.09,SSW,204,6.0,11.0,49,-99.99,,,-99.99,,2013-05-10 19:32:00,
2013-05-10 15:42:00,90.0,69.0,30.09,SW,224,7.0,13.0,48,-99.99,,,-99.99,,2013-05-10 19:42:00,
2013-05-10 15:52:00,90.0,69.0,30.09,SW,224,7.0,13.0,48,-99.99,,,-99.99,,2013-05-10 19:52:00,
2013-05-10 16:02:00,90.0,68.0,30.07,SW,227,8.0,14.0,47,-99.99,,,-99.99,,2013-05-10 20:02:00,
2013-05-10 16:12:00,90.0,68.0,30.07,SW,227,8.0,14.0,47,-99.99,,,-99.99,,2013-05-10 20:12:00,
2013-05-10 16:22:00,91.0,67.0,30.07,SW,225,7.0,12.0,46,-99.99,,,-99.99,,2013-05-10 20:22:00,
2013-05-10 16:32:00,90.0,67.0,30.06,SW,217,7.0,18.0,46,-99.99,,,-99.99,,2013-05-10 20:32:00,
2013-05-10 16:42:00,90.0,69.0,30.05,SW,230,6.0,16.0,49,-99.99,,,-99.99,,2013-05-10 20:42:00,
2013-05-10 16:52:00,90.0,69.0,30.05,SW,230,6.0,16.0,49,-99.99,,,-99.99,,2013-05-10 20:52:00,
2013-05-10 17:02:00,90.0,69.0,30.05,SW,230,6.0,16.0,49,-99.99,,,-99.99,,2013-05-10 21:02:00,
2013-05-10 17:11:00,90.0,69.0,30.05,SW,230,6.0,16.0,49,-99.99,,,-99.99,,2013-05-10 21:11:00,
2013-05-10 17:25:00,89.0,69.0,30.04,SW,226,8.0,13.0,51,-99.99,,,-99.99,,2013-05-10 21:25:00,
2013-05-10 17:32:00,89.0,69.0,30.04,SW,226,8.0,13.0,51,-99.99,,,-99.99,,2013-05-10 21:32:00,
2013-05-10 17:43:00,89.0,69.0,30.04,SW,226,8.0,13.0,51,-99.99,,,-99.99,,2013-05-10 21:43:00,
2013-05-10 17:53:00,88.0,70.0,30.04,WSW,240,8.0,15.0,54,-99.99,,,-99.99,,2013-05-10 21:53:00,
2013-05-10 18:02:00,88.0,70.0,30.04,WSW,240,8.0,15.0,54,-99.99,,,-99.99,,2013-05-10 22:02:00,
2013-05-10 18:13:00,88.0,70.0,30.04,WSW,240,8.0,15.0,54,-99.99,,,-99.99,,2013-05-10 22:13:00,
2013-05-10 18:22:00,87.0,70.0,30.06,SW,229,7.0,14.0,56,-99.99,,,-99.99,,2013-05-10 22:22:00,
2013-05-10 18:32:00,87.0,70.0,30.06,SW,229,7.0,14.0,56,-99.99,,,-99.99,,2013-05-10 22:32:00,
2013-05-10 18:42:00,86.0,70.0,30.05,WSW,242,9.0,14.0,58,-99.99,,,-99.99,,2013-05-10 22:42:00,
2013-05-10 18:53:00,86.0,70.0,30.05,WSW,254,7.0,16.0,59,-99.99,,,-99.99,,2013-05-10 22:53:00,
2013-05-10 19:02:00,86.0,70.0,30.05,WSW,254,7.0,16.0,59,-99.99,,,-99.99,,2013-05-10 23:02:00,
2013-05-10 19:12:00,85.0,70.0,30.07,SW,233,6.0,10.0,60,-99.99,,,-99.99,,2013-05-10 23:12:00,
2013-05-10 19:22:00,85.0,70.0,30.07,SW,233,6.0,10.0,60,-99.99,,,-99.99,,2013-05-10 23:22:00,
2013-05-10 19:33:00,85.0,70.0,30.07,SW,233,6.0,10.0,60,-99.99,,,-99.99,,2013-05-10 23:33:00,
2013-05-10 19:42:00,84.0,70.0,30.08,WSW,239,2.0,5.0,61,-99.99,,,-99.99,,2013-05-10 23:42:00,
2013-05-10 19:52:00,84.0,70.0,30.08,WSW,239,2.0,5.0,61,-99.99,,,-99.99,,2013-05-10 23:52:00,
2013-05-10 20:02:00,84.0,70.0,30.08,WSW,239,2.0,5.0,61,-99.99,,,-99.99,,2013-05-11 00:02:00,
2013-05-10 20:11:00,84.0,70.0,30.08,WSW,239,2.0,5.0,61,-99.99,,,-99.99,,2013-05-11 00:11:00,
2013-05-10 20:22:00,80.0,69.0,30.08,ENE,59,4.0,9.0,68,-99.99,,,-99.99,,2013-05-11 00:22:00,
2013-05-10 20:32:00,80.0,69.0,30.08,ENE,59,4.0,9.0,68,-99.99,,,-99.99,,2013-05-11 00:32:00,
2013-05-10 20:42:00,78.0,69.0,30.08,NE,46,4.0,6.0,73,-99.99,,,-99.99,,2013-05-11 00:42:00,
2013-05-10 20:52:00,77.0,69.0,30.09,ENE,72,2.0,4.0,76,-99.99,,,-99.99,,2013-05-11 00:52:00,
2013-05-10 21:01:00,77.0,69.0,30.09,ENE,72,2.0,4.0,76,-99.99,,,-99.99,,2013-05-11 01:01:00,
2013-05-10 21:11:00,77.0,69.0,30.09,ENE,72,2.0,4.0,76,-99.99,,,-99.99,,2013-05-11 01:11:00,
2013-05-10 21:21:00,72.0,67.0,30.10,East,80,1.0,2.0,84,-99.99,,,-99.99,,2013-05-11 01:21:00,
2013-05-10 21:32:00,72.0,67.0,30.10,East,80,1.0,2.0,84,-99.99,,,-99.99,,2013-05-11 01:32:00,
2013-05-10 21:42:00,70.0,66.0,30.10,SE,136,2.0,5.0,89,-99.99,,,-99.99,,2013-05-11 01:42:00,
2013-05-10 21:52:00,70.0,66.0,30.10,SE,136,2.0,5.0,89,-99.99,,,-99.99,,2013-05-11 01:52:00,
2013-05-10 22:02:00,70.0,66.0,30.10,SE,136,2.0,5.0,89,-99.99,,,-99.99,,2013-05-11 02:02:00,
2013-05-10 22:11:00,70.0,66.0,30.10,SE,136,2.0,5.0,89,-99.99,,,-99.99,,2013-05-11 02:11:00,
2013-05-10 22:22:00,68.0,65.0,30.09,East,100,2.0,4.0,91,-99.99,,,-99.99,,2013-05-11 02:22:00,
2013-05-10 22:32:00,68.0,65.0,30.09,East,100,2.0,4.0,91,-99.99,,,-99.99,,2013-05-11 02:32:00,
2013-05-10 22:42:00,67.0,65.0,30.09,ESE,121,1.0,3.0,92,-99.99,,,-99.99,,2013-05-11 02:42:00,
2013-05-10 22:52:00,67.0,65.0,30.09,ESE,121,1.0,3.0,92,-99.99,,,-99.99,,2013-05-11 02:52:00,
2013-05-10 23:01:00,67.0,65.0,30.09,ESE,121,1.0,3.0,92,-99.99,,,-99.99,,2013-05-11 03:01:00,
2013-05-10 23:11:00,67.0,65.0,30.09,ESE,121,1.0,3.0,92,-99.99,,,-99.99,,2013-05-11 03:11:00,
2013-05-10 23:21:00,65.0,64.0,30.10,SE,145,2.0,4.0,94,-99.99,,,-99.99,,2013-05-11 03:21:00,
2013-05-10 23:33:00,65.0,64.0,30.10,SE,145,2.0,4.0,94,-99.99,,,-99.99,,2013-05-11 03:33:00,
2013-05-10 23:42:00,65.0,64.0,30.09,SE,136,3.0,4.0,95,-99.99,,,-99.99,,2013-05-11 03:42:00,
2013-05-10 23:53:00,65.0,64.0,30.09,SE,136,3.0,4.0,95,-99.99,,,-99.99,,2013-05-11 03:53:00,